SAS2549 ESSA-EGCC

Flight info

Callsign SAS2549
Flight time 2h 6m
Altitude 34000
Route ARS N623 BEDLA N866 LAPSI DCT OGIRO DCT TINAC DCT ITSUX DCT TILNI
Aircraft A320/M-SDE3FGHIRWY/LB1

Departure

Time 2026-05-07 20:13
Airport Stockholm-Arlanda Airport (ESSA)

Arrival

Time 2026-05-07 22:20
Airport Manchester Airport (EGCC)
Time Latitude Longitude Altitude Speed Heading
2026-05-07 19:19 59.65434 17.93504 112 ft 0 kts 76°
2026-05-07 19:55 59.65434 17.93503 112 ft 1 kts 76°
2026-05-07 19:55 59.65428 17.93459 112 ft 4 kts 74°
2026-05-07 19:55 59.65419 17.93409 112 ft 4 kts 61°
2026-05-07 19:56 59.65405 17.93374 112 ft 4 kts
2026-05-07 19:56 59.65397 17.93373 112 ft 0 kts 346°
2026-05-07 20:07 59.65406 17.93369 112 ft 2 kts 346°
2026-05-07 20:07 59.65430 17.93357 112 ft 5 kts 346°
2026-05-07 20:07 59.65469 17.93343 112 ft 7 kts 358°
2026-05-07 20:07 59.65519 17.93337 112 ft 8 kts 345°
2026-05-07 20:08 59.65590 17.93311 110 ft 13 kts
2026-05-07 20:08 59.65636 17.93455 110 ft 14 kts 77°
2026-05-07 20:08 59.65659 17.93643 113 ft 14 kts 75°
2026-05-07 20:08 59.65685 17.93838 114 ft 15 kts 75°
2026-05-07 20:09 59.65710 17.94031 118 ft 14 kts 76°
2026-05-07 20:09 59.65733 17.94221 120 ft 14 kts 75°
2026-05-07 20:09 59.65759 17.94415 122 ft 15 kts 77°
2026-05-07 20:10 59.65816 17.94869 125 ft 19 kts 76°
2026-05-07 20:10 59.65804 17.95102 122 ft 17 kts 141°
2026-05-07 20:10 59.65693 17.95172 125 ft 16 kts 165°
2026-05-07 20:10 59.65576 17.95234 127 ft 19 kts 165°
2026-05-07 20:11 59.65444 17.95305 127 ft 21 kts 165°
2026-05-07 20:11 59.65302 17.95384 127 ft 21 kts 162°
2026-05-07 20:11 59.65161 17.95451 123 ft 20 kts 166°
2026-05-07 20:11 59.65029 17.95514 114 ft 16 kts 172°
2026-05-07 20:12 59.64953 17.95635 110 ft 15 kts 107°
2026-05-07 20:12 59.64908 17.95838 106 ft 17 kts 140°
2026-05-07 20:12 59.64805 17.95864 106 ft 8 kts 190°
2026-05-07 20:12 59.64800 17.95862 106 ft 1 kts 190°
2026-05-07 20:13 59.64662 17.95812 107 ft 54 kts 190°
2026-05-07 20:13 59.64065 17.95595 113 ft 117 kts 190°
2026-05-07 20:13 59.63117 17.95241 256 ft 149 kts 191°
2026-05-07 20:13 59.62097 17.94857 872 ft 149 kts 189°
2026-05-07 20:14 59.61073 17.94540 1431 ft 154 kts 180°
2026-05-07 20:14 59.60021 17.95275 1627 ft 175 kts 141°
2026-05-07 20:14 59.59030 17.96909 1901 ft 196 kts 140°
2026-05-07 20:14 59.57943 17.98650 2419 ft 205 kts 141°
2026-05-07 20:15 59.56787 18.00357 3109 ft 210 kts 153°
2026-05-07 20:15 59.55366 18.01062 3701 ft 220 kts 181°
2026-05-07 20:15 59.53806 18.00789 4331 ft 229 kts 186°
2026-05-07 20:15 59.52207 18.00388 5063 ft 236 kts 190°
2026-05-07 20:16 59.50638 17.99126 5413 ft 257 kts 220°
2026-05-07 20:16 59.49575 17.96234 5946 ft 269 kts 252°
2026-05-07 20:16 59.49415 17.92641 6691 ft 270 kts 278°
2026-05-07 20:16 59.49668 17.88983 7557 ft 270 kts 280°
2026-05-07 20:17 59.49957 17.85336 8412 ft 270 kts 281°
2026-05-07 20:17 59.50260 17.81634 9299 ft 271 kts 281°
2026-05-07 20:17 59.50557 17.77970 10143 ft 272 kts 281°
2026-05-07 20:17 59.50855 17.74224 10609 ft 286 kts 280°
2026-05-07 20:18 59.51061 17.71591 10719 ft 301 kts 280°
2026-05-07 20:18 59.51381 17.67402 11062 ft 315 kts 279°
2026-05-07 20:18 59.51702 17.63099 11700 ft 320 kts 279°
2026-05-07 20:18 59.52022 17.58746 12389 ft 322 kts 279°
2026-05-07 20:19 59.52447 17.52926 13311 ft 326 kts 279°
2026-05-07 20:19 59.52774 17.48498 13997 ft 328 kts 279°
2026-05-07 20:19 59.52994 17.45536 14400 ft 330 kts 279°
2026-05-07 20:19 59.53328 17.40992 15019 ft 332 kts 279°
2026-05-07 20:20 59.53652 17.36547 15619 ft 333 kts 279°
2026-05-07 20:20 59.53980 17.32009 16229 ft 335 kts 279°
2026-05-07 20:20 59.54307 17.27455 16843 ft 337 kts 278°
2026-05-07 20:20 59.54634 17.22879 17462 ft 338 kts 278°
2026-05-07 20:21 59.54963 17.18270 18081 ft 340 kts 278°
2026-05-07 20:21 59.55291 17.13635 18677 ft 342 kts 278°
2026-05-07 20:21 59.55617 17.08973 19231 ft 344 kts 278°
2026-05-07 20:21 59.55944 17.04289 19783 ft 346 kts 278°
2026-05-07 20:22 59.56273 16.99570 20338 ft 348 kts 278°
2026-05-07 20:22 59.56600 16.94817 20885 ft 351 kts 278°
2026-05-07 20:22 59.56927 16.90037 21418 ft 353 kts 278°
2026-05-07 20:22 59.57258 16.85220 21956 ft 355 kts 278°
2026-05-07 20:23 59.57592 16.80368 22472 ft 358 kts 278°
2026-05-07 20:23 59.57927 16.75489 22974 ft 360 kts 278°
2026-05-07 20:23 59.58259 16.70581 23467 ft 362 kts 278°
2026-05-07 20:23 59.58591 16.65640 23915 ft 365 kts 278°
2026-05-07 20:24 59.58986 16.60679 24318 ft 366 kts 280°
2026-05-07 20:24 59.59463 16.55729 24722 ft 368 kts 281°
2026-05-07 20:24 59.59642 16.50684 25109 ft 372 kts 266°
2026-05-07 20:24 59.58998 16.45716 25505 ft 379 kts 251°
2026-05-07 20:25 59.57944 16.40934 25886 ft 381 kts 250°
2026-05-07 20:25 59.56860 16.36147 26261 ft 383 kts 250°
2026-05-07 20:25 59.55760 16.31355 26619 ft 384 kts 250°
2026-05-07 20:25 59.54648 16.26544 26970 ft 386 kts 250°
2026-05-07 20:26 59.53530 16.21718 27322 ft 388 kts 250°
2026-05-07 20:26 59.52408 16.16872 27669 ft 390 kts 250°
2026-05-07 20:26 59.51278 16.12007 28010 ft 392 kts 250°
2026-05-07 20:26 59.50142 16.07111 28363 ft 394 kts 250°
2026-05-07 20:27 59.49003 16.02200 28697 ft 396 kts 250°
2026-05-07 20:27 59.47859 15.97263 28992 ft 397 kts 250°
2026-05-07 20:27 59.46703 15.92292 29232 ft 402 kts 250°
2026-05-07 20:27 59.45548 15.87353 29519 ft 404 kts 250°
2026-05-07 20:28 59.44369 15.82325 29901 ft 404 kts 250°
2026-05-07 20:28 59.43190 15.77313 30356 ft 403 kts 250°
2026-05-07 20:28 59.42013 15.72327 30752 ft 402 kts 250°
2026-05-07 20:28 59.40836 15.67354 31158 ft 401 kts 250°
2026-05-07 20:29 59.39662 15.62393 31552 ft 400 kts 250°
2026-05-07 20:29 59.38492 15.57455 31948 ft 399 kts 250°
2026-05-07 20:29 59.37319 15.52522 32355 ft 398 kts 250°
2026-05-07 20:29 59.36148 15.47600 32762 ft 397 kts 250°
2026-05-07 20:30 59.34980 15.42704 33163 ft 396 kts 250°
2026-05-07 20:30 59.33812 15.37819 33550 ft 396 kts 249°
2026-05-07 20:30 59.32643 15.32946 33952 ft 395 kts 249°
2026-05-07 20:30 59.31473 15.28071 34123 ft 397 kts 249°
2026-05-07 20:31 59.30294 15.23160 34139 ft 399 kts 249°
2026-05-07 20:31 59.27917 15.13322 34129 ft 402 kts 249°
2026-05-07 20:32 59.25498 15.03381 34136 ft 406 kts 249°
2026-05-07 20:32 59.23066 14.93427 34166 ft 406 kts 249°
2026-05-07 20:33 59.20632 14.83472 34167 ft 406 kts 248°
2026-05-07 20:33 59.18190 14.73533 34168 ft 407 kts 248°
2026-05-07 20:34 59.15728 14.63595 34168 ft 407 kts 248°
2026-05-07 20:34 59.13258 14.53650 34174 ft 407 kts 248°
2026-05-07 20:35 59.10789 14.43726 34177 ft 407 kts 248°
2026-05-07 20:35 59.08306 14.33810 34146 ft 408 kts 248°
2026-05-07 20:36 59.05807 14.23901 34147 ft 409 kts 247°
2026-05-07 20:36 59.03297 14.13978 34161 ft 410 kts 248°
2026-05-07 20:37 59.00777 14.04040 34173 ft 410 kts 247°
2026-05-07 20:37 58.98262 13.94183 34178 ft 410 kts 247°
2026-05-07 20:38 58.95707 13.84220 34175 ft 410 kts 247°
2026-05-07 20:38 58.93178 13.74398 34175 ft 410 kts 247°
2026-05-07 20:39 58.90624 13.64519 34177 ft 411 kts 247°
2026-05-07 20:39 58.88062 13.54646 34145 ft 411 kts 246°
2026-05-07 20:40 58.85490 13.44768 34144 ft 412 kts 246°
2026-05-07 20:40 58.82890 13.34862 34163 ft 414 kts 246°
2026-05-07 20:41 58.80281 13.24970 34169 ft 413 kts 246°
2026-05-07 20:41 58.77667 13.15090 34176 ft 413 kts 246°
2026-05-07 20:42 58.75089 13.05264 34184 ft 413 kts 246°
2026-05-07 20:42 58.72528 12.95359 34176 ft 413 kts 247°
2026-05-07 20:43 58.69963 12.85482 34179 ft 413 kts 246°
2026-05-07 20:43 58.67376 12.75621 34160 ft 413 kts 246°
2026-05-07 20:44 58.64773 12.65761 34146 ft 415 kts 246°
2026-05-07 20:44 58.62154 12.55874 34164 ft 416 kts 246°
2026-05-07 20:45 58.59523 12.45998 34184 ft 416 kts 245°
2026-05-07 20:45 58.56881 12.36134 34184 ft 415 kts 246°
2026-05-07 20:46 58.54244 12.26292 34180 ft 416 kts 245°
2026-05-07 20:46 58.51595 12.16452 34182 ft 416 kts 245°
2026-05-07 20:47 58.48940 12.06630 34187 ft 416 kts 245°
2026-05-07 20:47 58.46272 11.96816 34163 ft 416 kts 245°
2026-05-07 20:48 58.43590 11.87001 34142 ft 418 kts 245°
2026-05-07 20:48 58.40910 11.77223 34160 ft 419 kts 245°
2026-05-07 20:49 58.38180 11.67318 34172 ft 420 kts 244°
2026-05-07 20:49 58.35476 11.57526 34176 ft 420 kts 244°
2026-05-07 20:50 58.32743 11.47680 34179 ft 421 kts 244°
2026-05-07 20:50 58.30001 11.37841 34181 ft 421 kts 244°
2026-05-07 20:51 58.27251 11.28007 34189 ft 421 kts 244°
2026-05-07 20:51 58.24493 11.18193 34193 ft 421 kts 244°
2026-05-07 20:52 58.21728 11.08414 34199 ft 420 kts 244°
2026-05-07 20:52 58.18956 10.98645 34197 ft 420 kts 244°
2026-05-07 20:53 58.16179 10.88910 34195 ft 419 kts 244°
2026-05-07 20:53 58.13423 10.79274 34194 ft 419 kts 244°
2026-05-07 20:54 58.10635 10.69587 34192 ft 419 kts 244°
2026-05-07 20:54 58.07843 10.59910 34193 ft 419 kts 244°
2026-05-07 20:55 58.05047 10.50252 34194 ft 419 kts 243°
2026-05-07 20:55 58.02234 10.40592 34180 ft 420 kts 243°
2026-05-07 20:56 57.99411 10.30938 34178 ft 421 kts 243°
2026-05-07 20:56 57.96592 10.21339 34182 ft 421 kts 243°
2026-05-07 20:57 57.93729 10.11631 34186 ft 421 kts 242°
2026-05-07 20:57 57.90955 10.02009 34184 ft 421 kts 245°
2026-05-07 20:58 57.88458 9.92040 34192 ft 421 kts 247°
2026-05-07 20:58 57.86075 9.81988 34190 ft 421 kts 247°
2026-05-07 20:59 57.83648 9.71998 34192 ft 421 kts 246°
2026-05-07 20:59 57.81153 9.62049 34173 ft 422 kts 245°
2026-05-07 21:00 57.78632 9.52107 34170 ft 423 kts 245°
2026-05-07 21:00 57.76110 9.42147 34170 ft 423 kts 245°
2026-05-07 21:01 57.73583 9.32184 34180 ft 424 kts 245°
2026-05-07 21:01 57.71043 9.22226 34180 ft 424 kts 245°
2026-05-07 21:02 57.68500 9.12278 34181 ft 425 kts 245°
2026-05-07 21:02 57.65946 9.02337 34194 ft 424 kts 245°
2026-05-07 21:03 57.63380 8.92419 34194 ft 424 kts 244°
2026-05-07 21:03 57.60830 8.82595 34179 ft 424 kts 244°
2026-05-07 21:04 57.58252 8.72695 34165 ft 425 kts 244°
2026-05-07 21:04 57.55655 8.62785 34162 ft 426 kts 244°
2026-05-07 21:05 57.53045 8.52857 34161 ft 426 kts 244°
2026-05-07 21:05 57.50436 8.42942 34168 ft 427 kts 244°
2026-05-07 21:06 57.47812 8.33043 34186 ft 427 kts 243°
2026-05-07 21:06 57.45183 8.23174 34189 ft 426 kts 243°
2026-05-07 21:07 57.42993 8.14983 34191 ft 426 kts 243°
2026-05-07 21:07 57.39920 8.03567 34189 ft 425 kts 243°
2026-05-07 21:08 57.37274 7.93756 34164 ft 426 kts 243°
2026-05-07 21:08 57.35045 7.85522 34160 ft 427 kts 243°
2026-05-07 21:09 57.32371 7.75688 34175 ft 428 kts 242°
2026-05-07 21:09 57.29683 7.65857 34182 ft 428 kts 242°
2026-05-07 21:10 57.27008 7.56125 34183 ft 427 kts 242°
2026-05-07 21:10 57.24315 7.46339 34186 ft 427 kts 242°
2026-05-07 21:11 57.21617 7.36569 34189 ft 427 kts 242°
2026-05-07 21:11 57.17565 7.21993 34189 ft 425 kts 242°
2026-05-07 21:12 57.14855 7.12288 34162 ft 427 kts 242°
2026-05-07 21:12 57.12123 7.02570 34179 ft 427 kts 241°
2026-05-07 21:13 57.09382 6.92880 34178 ft 427 kts 241°
2026-05-07 21:13 57.06632 6.83187 34178 ft 427 kts 241°
2026-05-07 21:14 57.03882 6.73520 34183 ft 427 kts 241°
2026-05-07 21:14 57.01129 6.63859 34184 ft 427 kts 241°
2026-05-07 21:15 56.98366 6.54218 34180 ft 427 kts 241°
2026-05-07 21:15 56.95596 6.44618 34197 ft 426 kts 240°
2026-05-07 21:16 56.92813 6.35024 34183 ft 426 kts 240°
2026-05-07 21:16 56.90044 6.25495 34180 ft 427 kts 240°
2026-05-07 21:17 56.87253 6.15921 34179 ft 427 kts 240°
2026-05-07 21:17 56.84450 6.06349 34175 ft 427 kts 240°
2026-05-07 21:18 56.81639 5.96789 34176 ft 427 kts 240°
2026-05-07 21:18 56.78827 5.87243 34177 ft 427 kts 240°
2026-05-07 21:19 56.76007 5.77719 34189 ft 427 kts 240°
2026-05-07 21:19 56.73188 5.68209 34191 ft 426 kts 239°
2026-05-07 21:20 56.70356 5.58751 34182 ft 426 kts 239°
2026-05-07 21:20 56.67514 5.49298 34181 ft 426 kts 239°
2026-05-07 21:21 56.64665 5.39862 34180 ft 426 kts 239°
2026-05-07 21:21 56.61805 5.30411 34176 ft 427 kts 239°
2026-05-07 21:22 56.58943 5.20978 34173 ft 427 kts 239°
2026-05-07 21:22 56.56075 5.11558 34175 ft 426 kts 239°
2026-05-07 21:23 56.53202 5.02149 34175 ft 427 kts 239°
2026-05-07 21:23 56.50333 4.92830 34176 ft 427 kts 239°
2026-05-07 21:24 56.47435 4.83453 34169 ft 427 kts 239°
2026-05-07 21:24 56.44536 4.74072 34165 ft 428 kts 239°
2026-05-07 21:25 56.41616 4.64696 34167 ft 428 kts 238°
2026-05-07 21:25 56.38688 4.55328 34182 ft 428 kts 238°
2026-05-07 21:26 56.35760 4.45975 34181 ft 428 kts 238°
2026-05-07 21:26 56.32825 4.36646 34180 ft 427 kts 238°
2026-05-07 21:27 56.29882 4.27353 34178 ft 427 kts 238°
2026-05-07 21:27 56.26940 4.18069 34176 ft 427 kts 238°
2026-05-07 21:28 56.23996 4.08795 34173 ft 427 kts 238°
2026-05-07 21:28 56.21038 3.99541 34172 ft 427 kts 237°
2026-05-07 21:29 56.18065 3.90296 34166 ft 428 kts 237°
2026-05-07 21:29 56.15087 3.81058 34152 ft 427 kts 237°
2026-05-07 21:30 56.12102 3.71827 34154 ft 428 kts 237°
2026-05-07 21:30 56.09113 3.62626 34136 ft 428 kts 237°
2026-05-07 21:31 56.06143 3.53485 34138 ft 427 kts 237°
2026-05-07 21:31 56.03479 3.43938 34136 ft 429 kts 243°
2026-05-07 21:32 56.01047 3.34185 34148 ft 429 kts 243°
2026-05-07 21:32 55.98614 3.24464 34142 ft 429 kts 243°
2026-05-07 21:33 55.96162 3.14770 34156 ft 428 kts 243°
2026-05-07 21:33 55.93706 3.05093 34148 ft 428 kts 243°
2026-05-07 21:34 55.91253 2.95433 34153 ft 428 kts 243°
2026-05-07 21:34 55.88787 2.85772 34147 ft 428 kts 243°
2026-05-07 21:35 55.86319 2.76150 34163 ft 427 kts 242°
2026-05-07 21:35 55.83835 2.66550 34156 ft 427 kts 242°
2026-05-07 21:36 55.81347 2.56950 34155 ft 427 kts 242°
2026-05-07 21:36 55.78864 2.47373 34146 ft 426 kts 242°
2026-05-07 21:37 55.76386 2.37876 34142 ft 427 kts 242°
2026-05-07 21:37 55.73871 2.28319 34128 ft 428 kts 242°
2026-05-07 21:38 55.71351 2.18742 34131 ft 428 kts 241°
2026-05-07 21:38 55.68828 2.09171 34130 ft 429 kts 241°
2026-05-07 21:39 55.66292 1.99611 34124 ft 429 kts 241°
2026-05-07 21:39 55.63739 1.90055 34125 ft 428 kts 241°
2026-05-07 21:40 55.61186 1.80528 34128 ft 429 kts 241°
2026-05-07 21:40 55.58617 1.71006 34123 ft 429 kts 241°
2026-05-07 21:41 55.56051 1.61504 34134 ft 429 kts 240°
2026-05-07 21:41 55.53480 1.52003 34126 ft 428 kts 240°
2026-05-07 21:42 55.50921 1.42596 34116 ft 428 kts 240°
2026-05-07 21:42 55.48331 1.33132 34105 ft 429 kts 240°
2026-05-07 21:43 55.45728 1.23662 34107 ft 429 kts 240°
2026-05-07 21:43 55.43118 1.14196 34107 ft 430 kts 240°
2026-05-07 21:44 55.40501 1.04745 34118 ft 429 kts 239°
2026-05-07 21:44 55.37881 0.95318 34117 ft 429 kts 239°
2026-05-07 21:45 55.35251 0.85911 34110 ft 428 kts 239°
2026-05-07 21:45 55.32624 0.76525 34106 ft 428 kts 239°
2026-05-07 21:46 55.29985 0.67150 34105 ft 427 kts 239°
2026-05-07 21:46 55.27345 0.57804 34100 ft 427 kts 239°
2026-05-07 21:47 55.24698 0.48476 34109 ft 427 kts 239°
2026-05-07 21:47 55.22049 0.39178 34101 ft 426 kts 239°
2026-05-07 21:48 55.19409 0.29957 34103 ft 426 kts 239°
2026-05-07 21:48 55.16753 0.20692 34087 ft 426 kts 239°
2026-05-07 21:49 55.14091 0.11441 34090 ft 426 kts 239°
2026-05-07 21:49 55.11421 0.02226 34086 ft 425 kts 239°
2026-05-07 21:50 55.08743 -0.06997 34093 ft 425 kts 239°
2026-05-07 21:50 55.06061 -0.16161 34094 ft 424 kts 239°
2026-05-07 21:51 55.03377 -0.25306 34096 ft 423 kts 239°
2026-05-07 21:51 55.00704 -0.34423 34081 ft 422 kts 239°
2026-05-07 21:52 54.98030 -0.43516 34081 ft 422 kts 239°
2026-05-07 21:52 54.95341 -0.52602 34073 ft 422 kts 239°
2026-05-07 21:53 54.92648 -0.61665 34072 ft 422 kts 239°
2026-05-07 21:53 54.89942 -0.70722 34062 ft 422 kts 239°
2026-05-07 21:54 54.87250 -0.79701 33738 ft 419 kts 239°
2026-05-07 21:54 54.85908 -0.84168 33457 ft 416 kts 239°
2026-05-07 21:54 54.84571 -0.88609 33172 ft 414 kts 239°
2026-05-07 21:55 54.83240 -0.93025 32895 ft 412 kts 239°
2026-05-07 21:55 54.81915 -0.97416 32630 ft 410 kts 239°
2026-05-07 21:55 54.80596 -1.01782 32360 ft 408 kts 239°
2026-05-07 21:55 54.79278 -1.06123 32098 ft 406 kts 239°
2026-05-07 21:56 54.77961 -1.10443 31842 ft 404 kts 239°
2026-05-07 21:56 54.76651 -1.14733 31582 ft 400 kts 239°
2026-05-07 21:56 54.75353 -1.18979 31327 ft 398 kts 239°
2026-05-07 21:56 54.74061 -1.23206 31068 ft 396 kts 240°
2026-05-07 21:57 54.73207 -1.26000 30901 ft 396 kts 240°
2026-05-07 21:57 54.71922 -1.30204 30647 ft 394 kts 240°
2026-05-07 21:57 54.70642 -1.34388 30402 ft 393 kts 240°
2026-05-07 21:57 54.69360 -1.38562 30154 ft 392 kts 240°
2026-05-07 21:58 54.68080 -1.42709 29873 ft 390 kts 240°
2026-05-07 21:58 54.66805 -1.46834 29584 ft 388 kts 240°
2026-05-07 21:58 54.65538 -1.50934 29295 ft 386 kts 240°
2026-05-07 21:58 54.64273 -1.55019 29015 ft 384 kts 240°
2026-05-07 21:59 54.63023 -1.59049 28661 ft 379 kts 240°
2026-05-07 21:59 54.61785 -1.63039 28236 ft 375 kts 240°
2026-05-07 21:59 54.60555 -1.66989 27823 ft 372 kts 240°
2026-05-07 21:59 54.59330 -1.70904 27429 ft 369 kts 240°
2026-05-07 22:00 54.58117 -1.74776 27031 ft 366 kts 240°
2026-05-07 22:00 54.56870 -1.78585 26650 ft 363 kts 235°
2026-05-07 22:00 54.55269 -1.81917 26268 ft 360 kts 223°
2026-05-07 22:00 54.53305 -1.84560 25880 ft 358 kts 212°
2026-05-07 22:01 54.51055 -1.86427 25374 ft 361 kts 200°
2026-05-07 22:01 54.48605 -1.87450 24883 ft 363 kts 192°
2026-05-07 22:01 54.46117 -1.88214 24391 ft 364 kts 192°
2026-05-07 22:01 54.43623 -1.88986 23898 ft 365 kts 192°
2026-05-07 22:02 54.41119 -1.89765 23373 ft 366 kts 192°
2026-05-07 22:02 54.38613 -1.90551 22853 ft 365 kts 192°
2026-05-07 22:02 54.36151 -1.91324 22377 ft 364 kts 192°
2026-05-07 22:02 54.33667 -1.92101 21892 ft 362 kts 192°
2026-05-07 22:03 54.31196 -1.92873 21407 ft 360 kts 192°
2026-05-07 22:03 54.28735 -1.93643 20925 ft 358 kts 192°
2026-05-07 22:03 54.26290 -1.94415 20447 ft 356 kts 194°
2026-05-07 22:03 54.23960 -1.95755 19972 ft 352 kts 207°
2026-05-07 22:04 54.21916 -1.97988 19504 ft 348 kts 220°
2026-05-07 22:04 54.20262 -2.00971 19043 ft 346 kts 233°
2026-05-07 22:04 54.18891 -2.04320 18588 ft 343 kts 234°
2026-05-07 22:04 54.17526 -2.07666 18097 ft 342 kts 234°
2026-05-07 22:05 54.16166 -2.10975 17632 ft 339 kts 234°
2026-05-07 22:05 54.14798 -2.14220 17169 ft 335 kts 232°
2026-05-07 22:05 54.13387 -2.17367 16732 ft 332 kts 231°
2026-05-07 22:05 54.11965 -2.20438 16283 ft 328 kts 231°
2026-05-07 22:06 54.10546 -2.23471 15851 ft 326 kts 231°
2026-05-07 22:06 54.09141 -2.26475 15419 ft 323 kts 231°
2026-05-07 22:06 54.07749 -2.29463 14991 ft 321 kts 231°
2026-05-07 22:06 54.06368 -2.32438 14557 ft 319 kts 231°
2026-05-07 22:07 54.05001 -2.35400 14131 ft 317 kts 231°
2026-05-07 22:07 54.03642 -2.38348 13693 ft 316 kts 230°
2026-05-07 22:07 54.02067 -2.40869 13427 ft 307 kts 213°
2026-05-07 22:07 54.00167 -2.42357 13298 ft 297 kts 195°
2026-05-07 22:08 53.98062 -2.42755 12899 ft 290 kts 178°
2026-05-07 22:08 53.96197 -2.42315 12429 ft 285 kts 173°
2026-05-07 22:08 53.94241 -2.41797 12013 ft 284 kts 173°
2026-05-07 22:08 53.92292 -2.41293 11601 ft 281 kts 173°
2026-05-07 22:09 53.90368 -2.40804 11196 ft 278 kts 173°
2026-05-07 22:09 53.88463 -2.40327 10799 ft 276 kts 174°
2026-05-07 22:09 53.86556 -2.39848 10398 ft 278 kts 173°
2026-05-07 22:09 53.84652 -2.39368 10133 ft 275 kts 174°
2026-05-07 22:10 53.82779 -2.38896 9722 ft 270 kts 174°
2026-05-07 22:10 53.80940 -2.38409 9179 ft 266 kts 169°
2026-05-07 22:10 53.79237 -2.37181 8588 ft 268 kts 153°
2026-05-07 22:10 53.77656 -2.35503 8121 ft 267 kts 150°
2026-05-07 22:11 53.76095 -2.33786 8027 ft 268 kts 150°
2026-05-07 22:11 53.74525 -2.32054 8033 ft 270 kts 150°
2026-05-07 22:11 53.72949 -2.30314 8036 ft 271 kts 150°
2026-05-07 22:11 53.71375 -2.28577 8032 ft 270 kts 150°
2026-05-07 22:12 53.69839 -2.26889 7990 ft 258 kts 150°
2026-05-07 22:12 53.68355 -2.25256 7840 ft 251 kts 150°
2026-05-07 22:12 53.66902 -2.23649 7563 ft 249 kts 150°
2026-05-07 22:12 53.65456 -2.22050 7271 ft 248 kts 150°
2026-05-07 22:13 53.64013 -2.20462 6988 ft 248 kts 150°
2026-05-07 22:13 53.62573 -2.18875 6691 ft 246 kts 150°
2026-05-07 22:13 53.61144 -2.17299 6243 ft 245 kts 150°
2026-05-07 22:13 53.59712 -2.15725 5799 ft 245 kts 150°
2026-05-07 22:14 53.58283 -2.14164 5509 ft 244 kts 150°
2026-05-07 22:14 53.56863 -2.12619 5253 ft 241 kts 150°
2026-05-07 22:14 53.55477 -2.11115 5112 ft 233 kts 150°
2026-05-07 22:14 53.54131 -2.09652 4692 ft 229 kts 150°
2026-05-07 22:15 53.52797 -2.08209 4186 ft 227 kts 150°
2026-05-07 22:15 53.51471 -2.06780 3837 ft 224 kts 150°
2026-05-07 22:15 53.50199 -2.05413 3614 ft 211 kts 150°
2026-05-07 22:15 53.48933 -2.04304 3234 ft 202 kts 167°
2026-05-07 22:16 53.47576 -2.04187 3003 ft 188 kts 191°
2026-05-07 22:16 53.46391 -2.04985 3004 ft 183 kts 212°
2026-05-07 22:16 53.45474 -2.06473 3018 ft 185 kts 228°
2026-05-07 22:16 53.44672 -2.08149 2946 ft 187 kts 230°
2026-05-07 22:17 53.43874 -2.09823 2755 ft 181 kts 229°
2026-05-07 22:17 53.43094 -2.11449 2505 ft 177 kts 229°
2026-05-07 22:17 53.42336 -2.13031 2266 ft 169 kts 229°
2026-05-07 22:17 53.41616 -2.14537 2034 ft 163 kts 228°
2026-05-07 22:18 53.40922 -2.15972 1846 ft 149 kts 227°
2026-05-07 22:18 53.39737 -2.18429 1427 ft 131 kts 228°
2026-05-07 22:18 53.39163 -2.19633 1252 ft 135 kts 227°
2026-05-07 22:19 53.38560 -2.20855 1071 ft 136 kts 228°
2026-05-07 22:19 53.37963 -2.22109 858 ft 140 kts 229°
2026-05-07 22:19 53.37353 -2.23390 669 ft 140 kts 229°
2026-05-07 22:19 53.36747 -2.24658 478 ft 140 kts 230°
2026-05-07 22:20 53.36135 -2.25922 302 ft 140 kts 229°
2026-05-07 22:20 53.35587 -2.27057 257 ft 103 kts 231°
2026-05-07 22:20 53.35249 -2.27757 238 ft 49 kts 231°
2026-05-07 22:20 53.35103 -2.28055 233 ft 22 kts 230°
2026-05-07 22:21 53.35137 -2.28195 231 ft 14 kts 338°
2026-05-07 22:21 53.35200 -2.28200 231 ft 4 kts
2026-05-07 22:21 53.35238 -2.28193 231 ft 7 kts
2026-05-07 22:21 53.35294 -2.28182 233 ft 10 kts
2026-05-07 22:22 53.35372 -2.28167 235 ft 13 kts
2026-05-07 22:22 53.35478 -2.28136 234 ft 17 kts 21°
2026-05-07 22:22 53.35563 -2.28027 236 ft 14 kts 49°
2026-05-07 22:22 53.35606 -2.27940 239 ft 9 kts 51°
2026-05-07 22:23 53.35657 -2.27891 242 ft 8 kts 10°
2026-05-07 22:23 53.35707 -2.27881 245 ft 6 kts
2026-05-07 22:23 53.35746 -2.27874 247 ft 5 kts
2026-05-07 22:23 53.35788 -2.27867 249 ft 8 kts
2026-05-07 22:24 53.35858 -2.27856 253 ft 11 kts
2026-05-07 22:24 53.35942 -2.27851 255 ft 14 kts 348°
2026-05-07 22:24 53.36015 -2.27934 255 ft 11 kts 320°
2026-05-07 22:24 53.36091 -2.28048 255 ft 15 kts 319°
2026-05-07 22:25 53.36165 -2.28166 255 ft 14 kts 314°
2026-05-07 22:25 53.36241 -2.28296 255 ft 18 kts 314°
2026-05-07 22:25 53.36325 -2.28438 255 ft 17 kts 316°
2026-05-07 22:25 53.36425 -2.28502 255 ft 16 kts 329°
2026-05-07 22:26 53.36501 -2.28626 255 ft 16 kts 314°
2026-05-07 22:26 53.36576 -2.28753 255 ft 11 kts 314°
2026-05-07 22:26 53.36645 -2.28758 255 ft 12 kts 49°
2026-05-07 22:26 53.36679 -2.28683 255 ft 5 kts 90°
2026-05-07 22:27 53.36651 -2.28632 255 ft 5 kts 134°
2026-05-07 22:27 53.36641 -2.28615 255 ft 0 kts 135°
2026-05-07 22:27 53.36640 -2.28615 255 ft 0 kts 135°